Tracking 31027 objects as of 19-Jul-2025
HD Live streaming from Space Station
objects crossing your sky now

OPS 4682 DEB

Track OPS 4682 DEB now!
10-day predictions


NORAD ID: 38387
Int'l Code: 1965-027CQ
Perigee: 1,266.8 km
Apogee: 1,300.6 km
Inclination: 90.2 °
Period: 111.1 minutes
Semi major axis: 7654 km
RCS: 0.0137 m2 (small)
Launch date: April 3, 1965
Source: United States (US)
Launch site: AIR FORCE WESTERN TEST RANGE (AFWTR)

Note: This is SATELLITE DEBRIS
Your satellite tracking list
ATLAS 2A CENTAUR R/B
Track 1 satellite(s)




NASA's NSSDC Master Catalog

Two Line Element Set (TLE):
1 38387U 65027CQ  25184.23588616  .00000480  00000-0  16556-2 0  9995
2 38387  90.2410 357.5673 0022038 305.3286  54.5774 12.96313854558636
Source of the keplerian elements: AFSPC